Location: Chervonnoye
(48.6000°N, 34.4000°E)
Time: 04:44:11
(UTC+00:00)

deb Kosmos-2237 - Visible Passes

Search period start: 15 June 2021 00:00
Search period end: 25 June 2021 00:00
Orbit: 851 x 1045 km, 71.0° (Epoch: 14 June)

Date Brightness Start Highest point End Pass type
(mag) Time Alt. Az. Time Alt. Az. Time Alt. Az.
15 Jun ? 19:16:06 10° S 19:22:03 59° ESE 19:28:20 10° NE visible
15 Jun ? 21:03:19 10° WSW 21:08:51 33° NW 21:14:40 10° NNE visible
15 Jun ? 22:54:59 10° NW 22:57:33 12° NNW 23:00:09 10° N visible
16 Jun ? 19:33:01 10° SSW 19:39:07 89° ESE 19:45:37 10° NNE visible
16 Jun ? 21:21:28 10° W 21:26:28 24° NW 21:31:40 10° NNE visible
16 Jun ? 23:14:27 10° NNW 23:15:36 10° NNW 23:16:46 10° N visible
17 Jun ? 19:50:16 10° SW 19:56:21 62° WNW 20:02:47 10° NNE visible
17 Jun ? 21:39:56 10° WNW 21:44:13 18° NNW 21:48:37 10° N visible
18 Jun ? 18:21:33 10° S 18:27:16 44° ESE 18:33:18 10° NE visible
18 Jun ? 20:07:53 10° WSW 20:13:43 42° NW 20:19:52 10° NNE visible
18 Jun ? 21:58:44 10° WNW 22:02:06 14° NNW 22:05:32 10° N visible
19 Jun ? 18:38:11 10° SSW 18:44:15 68° ESE 18:50:41 10° NNE visible
19 Jun ? 20:25:48 10° WSW 20:31:14 30° NW 20:36:55 10° NNE visible
19 Jun ? 22:17:50 10° NW 22:20:06 12° NNW 22:22:21 10° N visible
20 Jun ? 00:09:00 10° N 00:10:01 10° NNE 00:11:02 10° NNE visible
20 Jun ? 18:55:12 10° SSW 19:01:22 80° WNW 19:07:55 10° NNE visible
20 Jun ? 20:44:04 10° W 20:48:54 22° NW 20:53:55 10° NNE visible
20 Jun ? 22:37:32 10° NNW 22:38:11 10° N 22:38:50 10° N visible
21 Jun ? 00:25:34 10° N 00:28:06 12° NNE 00:30:39 10° NE visible
21 Jun ? 19:12:35 10° SW 19:18:39 54° NW 19:25:04 10° NNE visible
21 Jun ? 21:02:39 10° WNW 21:06:42 17° NNW 21:10:51 10° N visible
22 Jun ? 00:42:23 10° N 00:46:05 15° NNE 00:49:48 10° ENE visible
22 Jun ? 19:30:18 10° WSW 19:36:05 38° NW 19:42:09 10° NNE visible
22 Jun ? 21:21:32 10° NW 21:24:38 14° NNW 21:27:46 10° N visible
23 Jun ? 19:48:20 10° W 19:53:39 27° NW 19:59:10 10° NNE visible
23 Jun ? 21:40:44 10° NNW 21:42:39 11° NNW 21:44:34 10° N visible
23 Jun ? 23:30:56 10° N 23:32:36 11° NNE 23:34:16 10° NNE visible
24 Jun ? 20:06:42 10° W 20:11:21 21° NW 20:16:09 10° NNE visible
24 Jun ? 23:47:41 10° N 23:50:39 13° NNE 23:53:38 10° NE visible
